Flag for New Zealand Weather past 2 weeks in Wellington, New Zealand

Now
63 °F

Light rain. Mostly cloudy.


Feels Like: 63 °F
Forecast: 60 / 65 °F
Wind: 10 mph from Northeast

Location: Wellington Airport

Current Time: Dec 20, 2014 at 11:55:45 PM

Latest Report: Dec 20, 2014 at 11:30 PM


Visibility: 6 mi

Pressure: 29.77 "Hg

Humidity: 94%

Dew point: 61 °F

Location of WellingtonLocation

Historic Weather in Wellington — Graph

°F

Wellington temperature yesterday

Maximum temperature yesterday: 68 °F (at 6:00 PM)
Minimum temperature yesterday: 59 °F (at 4:30 AM)
Average temperature yesterday: 63 °F

Past Weeks' High & Low Weather Summary

 TemperatureHumidityPressure
High73 °F (Dec 17, 2:30 PM)100% (Dec 10, 10:30 AM)30.30 "Hg (Dec 10, 10:30 AM)
Low46 °F (Dec 15, 5:00 AM)43% (Dec 15, 7:00 PM)29.68 "Hg (Dec 12, 4:30 AM)
Average59 °F79%29.96 "Hg
* Reported Dec 5 10:00 PM — Dec 20 10:30 PM, Wellington, Weather by CustomWeather, © 2014

Note: Actual official high and low records may vary slightly from our data, if they occured in-between our weather recording intervals... More about our weather records

Advertising

Wellington weather history for previous 24 hours

 ConditionsComfort  
Time TempWeatherWind HumidityBarometerVisibility
10:30 PM
Dec 20
63 °FRain. Mostly cloudy.12 mph94%29.77 "Hg6 mi
10:00 PM64 °FSprinkles. Passing clouds.14 mph88%29.80 "HgN/A
9:30 PM63 °FPassing clouds.12 mph94%29.77 "HgN/A
9:00 PM63 °FLight rain. Partly cloudy.14 mph94%29.77 "HgN/A
8:30 PM64 °FLight rain. Partly sunny.17 mph88%29.80 "HgN/A
8:00 PM66 °FPartly sunny.16 mph83%29.80 "HgN/A
7:30 PM66 °FScattered clouds.17 mph83%29.80 "HgN/A
7:00 PM70 °FPartly sunny.14 mph73%29.80 "HgN/A
6:30 PM68 °FScattered clouds.18 mph73%29.80 "HgN/A
6:00 PM70 °FScattered clouds.12 mph69%29.80 "HgN/A
5:30 PM68 °FPartly sunny.18 mph78%29.83 "HgN/A
5:00 PM66 °FPartly sunny.17 mph83%29.83 "HgN/A
4:30 PM66 °FOvercast.18 mph83%29.86 "HgN/A
4:00 PM66 °FPartly sunny.18 mph78%29.89 "HgN/A
3:30 PM66 °FPartly sunny.17 mph83%29.89 "HgN/A
3:00 PM66 °FPartly sunny.17 mph83%29.92 "HgN/A
2:30 PM68 °FPartly sunny.20 mph73%29.92 "HgN/A
2:00 PM66 °FPartly sunny.20 mph78%29.92 "HgN/A
1:30 PM66 °FOvercast.21 mph78%29.92 "HgN/A
1:00 PM66 °FPartly sunny.20 mph78%29.95 "HgN/A
12:30 PM66 °FPartly sunny.18 mph78%29.95 "HgN/A
12:00 PM64 °FOvercast.21 mph83%29.95 "HgN/A
11:30 AM66 °FOvercast.22 mph78%29.95 "HgN/A
11:00 AM66 °FOvercast.20 mph83%29.95 "HgN/A
10:30 AM64 °FOvercast.21 mph83%29.95 "HgN/A
10:00 AM64 °FOvercast.21 mph83%29.95 "HgN/A
9:30 AM63 °FOvercast.20 mph88%29.95 "HgN/A
9:00 AM63 °FOvercast.20 mph94%29.98 "HgN/A
8:30 AM63 °FOvercast.18 mph94%29.95 "HgN/A
8:00 AM63 °FLow clouds.20 mph94%29.98 "HgN/A
7:30 AM61 °FDrizzle. Low clouds.20 mph100%29.98 "HgN/A
7:00 AM61 °FOvercast.21 mph100%29.98 "Hg4 mi
6:30 AM61 °FOvercast.18 mph100%29.98 "HgN/A
6:00 AM61 °FOvercast.22 mph100%29.98 "HgN/A
5:30 AM61 °FSprinkles. Low clouds.21 mph100%29.98 "Hg3 mi
5:00 AM61 °FLow clouds.22 mph94%29.98 "HgN/A
4:30 AM61 °FPassing clouds.23 mph94%29.98 "Hg4 mi
4:00 AM61 °FPassing clouds.23 mph94%29.98 "HgN/A
3:30 AM61 °FPassing clouds.21 mph94%29.98 "HgN/A
3:00 AM61 °FLow clouds.22 mph94%30.01 "HgN/A
2:30 AM61 °FPassing clouds.22 mph94%29.98 "HgN/A
2:00 AM61 °FLow clouds.18 mph94%30.01 "HgN/A
1:30 AM63 °FLow clouds.18 mph94%30.01 "HgN/A
1:00 AM61 °FLow clouds.21 mph100%30.01 "HgN/A
12:30 AM63 °FLow clouds.22 mph94%30.01 "HgN/A
12:00 AM63 °FMostly cloudy.23 mph94%30.01 "HgN/A
11:30 PM
Dec 19
63 °FPassing clouds.24 mph88%30.01 "HgN/A
11:00 PM63 °FOvercast.21 mph88%30.01 "HgN/A
Weather by CustomWeather, © 2014

See weather overviewHow to use our weather pages